Regional Weather Roundup
Issued by NWS

Home | Current Version | Previous Version | Graphics & Text | Print | Product List | Glossary On
Versions: 1 2 3 4 5 6 7 8 9 10 11 12 13 14 15 16 17 18 19 20 21 22 23 24 25 26 27 28 29 30 31 32 33 34 35 36 37 38 39 40 41 42 43 44 45 46 47 48 49 50
000
ASUS43 KOAX 230110
RWRNE

WEATHER ROUNDUP FOR NEBRASKA
NATIONAL WEATHER SERVICE OMAHA NE
800 PM CDT FRI JUL 22 2016

NOTES: SATELLITE DATA IS BEING USED TO AUGMENT CLOUD COVER ABOVE
       12000 FEET.
       "FAIR" INDICATES FEW OR NO CLOUDS BELOW 12,000 FEET WITH NO
       SIGNIFICANT WEATHER AND/OR OBSTRUCTIONS TO VISIBILITY.

  * THESE STATIONS DO NOT REPORT WEATHER SUCH AS RAIN...SNOW OR FOG.

NEZ001>004-019>022-054>056-230200-
NEBRASKA PANHANDLE

CITY           SKY/WX    TMP DP  RH WIND       PRES   REMARKS
SCOTTSBLUFF    CLOUDY    79  61  53 E18       30.01F
ALLIANCE       CLOUDY    69  64  84 SE12      30.04R
CHADRON        CLOUDY    79  62  56 SE18G24   29.97F
KIMBALL        SUNNY     90  54  29 S10       30.04F
SIDNEY         CLOUDY    84  63  49 NE12      30.02S
$$

NEZ057>060-069>072-079>082-230200-
SOUTHWEST NEBRASKA

CITY           SKY/WX    TMP DP  RH WIND       PRES   REMARKS
NORTH PLATTE   CLOUDY    87  79  76 SE8       29.95F HX 101
IMPERIAL       CLOUDY    85  67  54 E6        29.97F
LEXINGTON      CLOUDY    85  72  63 SE7       29.95S HX  91
MCCOOK         CLOUDY    85  71  63 NE8       29.95R HX  90
OGALLALA       CLOUDY    88  67  49 E9        29.95F HX  91
$$

NEZ005>010-023>029-035>040-094-230200-
NORTH CENTRAL NEBRASKA

CITY           SKY/WX    TMP DP  RH WIND       PRES   REMARKS
VALENTINE      PTSUNNY   90  68  48 E7        29.96F HX  94
AINSWORTH      CLOUDY    86  77  75 CALM      29.97S HX  97
BROKEN BOW     CLOUDY    87  72  60 S10       29.95R HX  93
O`NEILL        MOSUNNY   90  76  63 E12       29.93F HX 102
ORD            CLOUDY    90  77  65 E7        29.91S HX 103
THEDFORD       CLOUDY    89  74  61 E5        29.98S HX  97
$$

NEZ041-046>049-061>064-073>077-083>087-230200-
SOUTH CENTRAL NEBRASKA

CITY           SKY/WX    TMP DP  RH WIND       PRES   REMARKS
GRAND ISLAND   CLEAR     89  68  49 S3        29.92F HX  93
AURORA         CLEAR     87  76  69 CALM      29.91F HX  97
HASTINGS       CLEAR     88  70  55 NW3       29.93S HX  93
HEBRON         MOCLDY    87  70  55 CALM      29.89R HX  92
HOLDREGE       PTCLDY    84  73  70 CALM      29.94S HX  91
KEARNEY *      CLEAR     86  72  62 S5        29.94F HX  92
YORK           CLOUDY    81  75  83 CALM      29.91F
$$

NEZ011>018-030>034-042>045-230200-
NORTHEAST NEBRASKA

CITY           SKY/WX    TMP DP  RH WIND       PRES   REMARKS
NORFOLK        CLOUDY    88  78  72 E8        29.91S HX 101
ALBION         MOCLDY    86  78  75 SE6       29.92S HX  98
BLAIR          PTCLDY    90  82  78 E6        29.91S HX 111
FREMONT        CLEAR     91  75  59 S3        29.90S HX 101
TEKAMAH        CLEAR     90  81  74 E6        29.89S HX 109
WAYNE          PTCLDY    88  80  78 E6        29.92F HX 105
$$

NEZ050>053-065>068-078-088>093-230200-
SOUTHEAST NEBRASKA

CITY           SKY/WX    TMP DP  RH WIND       PRES   REMARKS
LINCOLN        CLOUDY    90  72  55 S6        29.90S HX  97
OMAHA EPPLEY   MOCLDY    91  81  72 SE12      29.89S HX 111
BEATRICE       CLOUDY    86  68  54 CALM      29.88S
FALLS CITY     PTCLDY    88  79  74 SE5       29.89F HX 103
NEBRASKA CITY  CLOUDY    87  80  79 SE5       29.89F HX 102
PLATTSMOUTH    CLOUDY    90  83  81 CALM      29.90S HX 113
$$

NEZ044-045-051>053-067-230200-
OMAHA AREA

CITY           SKY/WX    TMP DP  RH WIND       PRES   REMARKS
OMAHA EPPLEY   MOCLDY    91  81  72 SE12      29.89S HX 111
BLAIR          PTCLDY    90  82  78 E6        29.91S HX 111
FREMONT        CLEAR     91  75  59 S3        29.90S HX 101
MILLARD        PTCLDY    91  81  71 SE7       29.89S HX 111
OFFUTT AFB     MOCLDY    90  82  78 E8        29.89S HX 112
PLATTSMOUTH    CLOUDY    90  83  81 CALM      29.90S HX 113
WAHOO          FAIR      90  80  72 CALM      29.90R HX 106
$$




USA.gov is the U.S. government's official web portal to all federal, state and local government web resources and services.